Temperature
11 11 11 11 11 11 12 12 12 12 13 14 14 14 14 14 14 14 14 14 15 15 15 15 15 15 15 15 16 16 16 16 16 16 16 16 16 17
10 10 11 11 11 11 11 11 11 12 12 12 13 13 13 14 14 14 14 14 14 14 15 15 15 15 15 15 15 15 16 16 16 16 16 16 16 16
10 10 10 10 10 10 10 11 11 11 11 12 12 13 13 13 13 13 13 14 14 14 14 15 15 15 15 15 15 15 15 16 16 16 16 16 16 16
10 10 10 10 10 10 10 10 10 11 11 11 11 12 12 12 13 13 13 13 13 14 14 14 14 14 14 15 15 15 15 15 16 16 16 16 16 16
10 10 10 10 10 10 10 10 10 10 10 11 11 11 12 12 12 13 13 13 13 13 14 14 14 14 14 14 15 15 15 15 15 16 16 16 16 16
10 10 10 10 10 10 10 10 10 10 10 10 10 11 11 12 12 12 13 13 13 13 13 14 14 14 14 14 14 15 15 15 15 15 16 16 16 16
10 10 9 9 9 10 9 9 9 9 9 9 10 10 11 11 12 12 12 13 13 13 13 13 14 14 14 14 14 14 15 15 15 15 16 16 16 16
10 10 9 9 9 10 10 10 9 9 9 9 9 9 10 11 11 11 12 12 12 13 13 13 13 13 14 14 14 14 14 15 15 15 15 15 16 16
10 10 9 9 9 9 9 9 9 9 9 9 9 9 10 10 10 10 11 11 11 12 12 12 13 13 13 13 14 14 14 14 14 15 15 15 15 15
10 10 9 9 9 9 9 9 9 9 9 9 9 9 10 10 10 9 9 10 11 11 12 12 12 13 13 13 13 13 14 14 14 15 15 15 15 15
10 9 9 9 9 9 9 9 9 9 9 9 9 9 9 9 9 9 9 9 10 11 11 12 12 12 12 13 13 13 13 14 14 14 14 14 15 15
9 9 9 9 9 9 9 9 8 9 8 8 8 8 9 9 9 9 9 8 9 10 11 11 12 12 12 12 13 13 13 13 13 14 14 14 14 14
9 9 9 9 9 9 9 9 8 8 8 8 8 8 8 8 9 9 9 9 9 9 10 11 11 11 12 12 12 12 12 13 13 13 13 13 14 14
9 9 9 9 9 9 9 9 8 8 8 8 8 8 8 8 9 9 9 9 10 10 10 10 10 11 11 11 12 12 12 12 13 13 13 13 13 13
9 9 9 8 8 8 9 8 8 8 8 7 7 8 8 8 8 9 9 9 9 9 10 10 10 10 11 11 11 12 12 12 12 12 12 13 13 13
9 9 9 9 8 8 8 8 8 8 8 7 7 7 8 8 8 8 9 9 9 9 10 10 10 10 11 11 11 12 12 12 12 12 12 12 12 13
9 8 8 8 8 8 8 8 8 8 8 7 7 7 7 8 8 8 9 9 9 9 10 10 10 10 11 11 11 11 11 12 12 12 12 12 12 12
9 9 8 8 8 8 8 8 8 8 8 8 8 8 8 8 8 8 9 9 9 9 10 10 10 10 10 10 11 11 11 11 12 12 12 12 12 12
9 9 8 8 8 8 8 8 8 8 8 8 8 8 8 8 8 8 9 9 9 9 10 10 10 10 10 10 10 11 11 11 11 11 11 11 11 12
9 9 9 8 8 8 8 8 8 8 8 8 8 8 8 8 8 8 8 9 9 9 9 9 10 10 10 10 10 11 10 11 11 11 11 11 11 11
9 9 9 9 8 8 8 8 8 8 8 8 8 8 8 8 8 8 8 9 9 9 9 9 10 10 10 10 10 10 10 10 11 11 11 11 11 11
9 9 9 9 8 8 8 8 8 8 8 8 8 8 8 8 8 8 8 9 9 9 9 9 9 9 9 9 9 10 10 10 10 10 10 11 11 11
9 9 9 9 8 8 8 8 8 8 8 8 8 8 8 8 8 8 8 8 9 9 9 9 9 9 9 9 9 9 10 10 10 10 10 10 10 11
Wind_Speed
7 7 5 5 5 5 5 5 6 7 7 6 4 2 2 3 4 5 6 8 13 17 18 20 22 24 26 28 30 31 31 31 32 31 31 31 31 30
6 7 6 6 6 5 5 5 5 6 8 6 6 5 4 4 6 5 7 9 12 16 18 19 20 22 24 25 27 30 31 31 32 32 32 31 31 30
8 8 8 7 6 6 6 6 6 6 8 7 6 5 4 6 4 6 9 9 10 15 18 19 20 21 22 23 24 27 29 30 31 31 31 31 31 31
8 8 8 8 8 7 6 7 7 7 7 9 7 7 8 7 6 7 6 9 9 13 17 18 19 20 21 22 23 26 28 30 30 31 32 32 32 31
8 8 8 8 8 7 7 7 7 9 7 7 8 6 6 7 6 7 7 6 8 11 14 17 18 19 21 22 22 24 26 28 30 31 32 32 32 32
8 8 9 9 9 9 8 8 8 8 8 8 8 7 7 7 6 6 6 6 6 7 8 10 14 17 18 19 21 22 25 27 29 30 31 32 32 32
8 8 10 11 12 10 10 7 7 6 6 7 7 7 7 6 5 5 6 5 6 5 5 5 6 7 10 15 17 19 22 24 26 28 30 31 31 30
9 9 10 12 13 15 16 15 12 10 9 8 8 8 8 7 6 6 5 5 5 3 5 6 6 6 6 8 12 15 18 21 23 26 28 29 29 29
9 9 12 13 10 8 11 14 16 18 17 12 11 11 10 9 7 8 7 7 6 4 3 5 5 5 3 5 10 12 14 18 21 23 25 26 27 27
11 11 11 11 13 10 9 9 9 10 13 13 13 13 13 10 9 8 8 8 8 6 6 5 4 4 3 3 6 9 11 14 17 19 22 24 25 25
12 12 12 11 13 12 9 9 9 9 12 15 15 16 16 15 10 7 7 8 8 7 5 5 3 3 3 3 3 6 9 12 14 17 20 22 22 21
9 10 13 13 12 11 9 9 10 10 10 11 10 12 13 14 15 12 10 9 9 7 5 4 4 3 3 2 3 3 4 7 11 14 17 20 23 16
9 8 6 7 8 11 11 9 11 9 7 8 9 9 9 9 11 11 12 11 11 9 5 4 4 4 3 2 2 3 3 3 5 7 14 20 22 16
9 8 5 4 6 9 10 12 13 10 8 9 10 10 9 9 9 10 12 13 11 12 8 5 4 5 5 3 3 3 3 3 4 5 7 14 16 16
10 12 11 10 10 10 15 16 13 10 10 11 11 10 9 9 8 8 9 10 11 12 11 8 8 6 6 5 4 4 3 3 4 6 7 8 8 9
10 11 14 16 14 14 13 11 11 11 11 11 10 9 8 8 8 8 7 7 8 8 9 9 9 9 7 6 5 6 5 5 6 6 7 6 7 9
4 7 9 10 9 9 9 10 10 10 12 12 11 10 9 9 9 8 7 7 7 8 7 7 7 6 6 6 6 7 7 5 6 7 6 6 6 7
4 9 11 11 10 9 9 9 9 9 10 10 10 10 10 9 8 8 7 7 8 8 8 6 6 5 3 2 4 7 7 7 7 8 6 6 7 6
6 10 11 10 10 9 9 9 9 8 8 9 10 10 9 9 9 8 8 8 8 8 8 7 8 8 9 7 4 5 8 8 9 7 7 5 6 7
9 11 11 10 9 9 9 8 8 7 8 8 9 9 9 9 9 9 8 9 9 9 8 8 9 9 10 8 5 4 7 10 9 9 6 4 5 7
10 10 10 10 9 8 7 7 7 7 8 8 8 9 9 9 9 9 9 11 10 8 9 9 9 11 6 5 6 4 4 5 9 8 8 7 6 6
10 9 8 8 7 7 7 7 7 7 8 8 8 8 8 8 9 10 9 9 9 9 9 7 8 8 7 8 8 8 6 5 7 12 10 5 6 9
7 7 7 6 6 6 6 7 8 8 7 8 7 7 7 8 8 8 9 8 7 8 8 8 8 8 8 8 8 8 10 9 6 7 5 11 5 5
Wind_Direction
279 280 272 281 286 283 284 280 284 290 291 292 292 258 249 215 209 239 260 260 244 236 232 229 224 221 219 218 218 218 218 217 217 217 218 219 218 219
263 267 273 273 279 286 287 283 274 275 283 291 293 282 271 272 236 244 259 267 253 238 231 230 227 221 220 218 218 218 219 219 218 218 218 218 218 219
268 268 264 264 268 276 282 284 282 278 279 285 288 292 277 274 264 257 263 259 256 240 230 227 227 224 220 220 221 220 219 219 219 218 218 218 218 219
269 269 269 268 260 259 265 271 274 275 276 279 281 282 275 266 255 249 258 261 255 242 227 226 226 225 222 221 223 223 221 220 220 220 219 218 217 218
271 271 270 268 267 263 263 267 274 279 280 281 283 276 272 269 261 256 255 255 255 245 226 226 224 222 223 223 225 225 223 222 221 220 220 218 217 217
267 268 269 266 263 262 263 259 263 269 275 279 278 276 272 266 260 251 255 245 244 240 226 219 221 222 224 224 226 226 225 224 222 220 219 217 216 216
281 275 271 268 261 256 261 263 271 273 276 278 277 278 275 275 273 264 264 259 242 226 223 213 208 215 220 225 226 228 227 224 221 219 218 216 214 214
279 277 277 272 261 246 244 246 248 257 263 269 276 279 286 299 311 308 299 294 277 239 222 230 211 214 211 213 217 222 226 224 220 217 215 213 211 211
271 273 276 276 282 268 250 244 245 246 244 249 261 268 276 286 306 313 310 305 292 286 263 252 231 222 205 205 205 213 220 221 216 211 209 208 207 207
263 262 263 267 271 270 272 264 254 250 244 241 243 250 257 265 272 280 287 289 281 264 231 241 230 215 186 186 201 209 214 215 211 206 204 203 201 200
262 263 261 260 256 248 249 257 262 263 261 252 236 236 239 243 246 262 273 278 279 275 238 224 214 197 187 190 199 214 214 211 206 201 198 194 190 187
265 262 260 258 256 237 235 248 256 259 267 278 269 254 249 247 238 236 245 255 264 271 245 214 199 178 199 190 184 198 206 207 199 194 189 184 175 172
271 275 276 274 255 240 237 247 253 262 274 274 273 267 256 246 241 231 225 230 240 248 252 219 208 193 191 175 183 194 193 184 178 180 179 176 173 168
264 273 277 276 263 252 244 247 251 256 261 263 262 259 255 251 244 234 224 220 223 233 244 233 230 214 192 180 188 181 185 178 169 163 166 172 174 170
258 268 279 270 266 258 248 245 247 248 249 253 255 255 253 252 252 250 240 228 226 229 232 225 226 229 215 197 177 174 171 177 169 162 162 170 170 162
258 269 269 260 251 252 256 246 237 239 242 247 251 254 254 250 248 246 243 234 228 229 225 219 213 215 224 211 181 179 174 171 168 161 155 159 162 165
303 280 273 269 260 253 249 244 239 234 236 241 247 252 254 252 246 240 238 233 231 229 225 214 205 205 212 205 192 183 172 165 166 159 155 153 160 165
263 267 268 268 266 265 265 259 250 244 242 239 239 242 247 249 246 235 230 227 230 230 222 207 185 176 189 231 208 183 175 170 165 163 158 156 162 163
237 257 261 263 265 267 265 262 259 252 246 243 241 239 241 245 244 239 230 225 226 227 221 202 190 190 199 206 203 192 174 164 162 166 168 157 161 163
237 249 256 259 260 262 264 263 260 258 252 246 244 240 236 235 236 234 231 226 222 221 218 204 197 199 204 195 172 175 174 165 166 167 156 114 99 98
253 251 252 255 256 256 261 263 261 259 256 249 243 239 237 234 231 231 229 226 223 220 215 208 203 195 188 162 153 149 148 154 164 163 151 140 136 141
262 265 263 262 259 257 262 264 262 260 258 252 245 239 236 235 233 231 229 225 220 218 218 206 185 180 187 186 177 158 145 129 100 103 86 96 159 167
263 271 272 271 269 259 256 261 264 262 259 254 248 239 234 234 231 230 228 225 221 215 211 197 186 185 191 188 174 161 154 150 142 127 62 23 64 115
Height
1518 1518 1517 1517 1517 1517 1516 1516 1516 1514 1512 1512 1511 1510 1509 1508 1508 1507 1507 1507 1507 1507 1508 1510 1512 1516 1521 1526 1531 1536 1541 1546 1552 1556 1561 1565 1569 1573
1514 1513 1513 1513 1512 1512 1512 1512 1512 1511 1508 1508 1507 1507 1506 1505 1504 1503 1503 1502 1502 1502 1502 1503 1505 1508 1512 1517 1522 1527 1532 1538 1543 1548 1553 1557 1562 1566
1510 1509 1509 1508 1508 1507 1507 1507 1507 1506 1504 1503 1503 1502 1502 1501 1500 1499 1498 1497 1497 1497 1497 1497 1499 1501 1504 1508 1513 1518 1523 1528 1533 1539 1544 1549 1554 1558
1506 1505 1504 1504 1503 1503 1502 1502 1502 1501 1501 1498 1498 1497 1497 1496 1495 1494 1493 1493 1492 1492 1491 1492 1493 1495 1497 1501 1505 1509 1514 1519 1524 1529 1535 1540 1545 1550
1501 1500 1499 1499 1498 1497 1497 1497 1496 1496 1496 1494 1493 1493 1492 1492 1491 1490 1489 1488 1487 1486 1486 1487 1488 1489 1491 1494 1497 1501 1505 1509 1515 1520 1525 1530 1536 1541
1496 1495 1494 1493 1493 1492 1492 1491 1491 1490 1490 1489 1488 1487 1487 1487 1486 1485 1484 1483 1482 1482 1482 1482 1483 1484 1486 1488 1490 1493 1496 1500 1504 1510 1515 1521 1527 1532
1490 1489 1488 1488 1487 1487 1486 1486 1486 1485 1484 1484 1483 1483 1482 1482 1482 1480 1479 1478 1477 1477 1477 1477 1478 1479 1480 1481 1483 1485 1488 1491 1495 1500 1505 1511 1517 1524
1484 1483 1482 1481 1481 1480 1480 1479 1480 1479 1478 1478 1477 1477 1477 1477 1476 1476 1475 1474 1473 1474 1473 1472 1473 1473 1474 1476 1477 1479 1481 1483 1486 1491 1496 1502 1508 1515
1478 1476 1475 1475 1475 1474 1473 1473 1472 1472 1472 1472 1470 1470 1470 1471 1471 1470 1469 1469 1468 1468 1468 1467 1468 1468 1469 1470 1471 1473 1474 1476 1479 1483 1487 1493 1500 1506
1472 1470 1469 1468 1468 1468 1467 1466 1466 1465 1465 1465 1464 1463 1464 1465 1465 1465 1465 1464 1463 1463 1464 1463 1463 1463 1464 1465 1466 1467 1468 1470 1472 1475 1480 1485 1492 1499
1466 1465 1464 1463 1462 1462 1461 1460 1459 1458 1458 1458 1458 1457 1457 1458 1459 1459 1459 1459 1458 1458 1459 1458 1457 1458 1459 1460 1461 1462 1463 1465 1467 1469 1473 1479 1485 1491
1460 1459 1458 1457 1456 1455 1454 1453 1452 1451 1451 1451 1450 1450 1450 1450 1451 1451 1452 1452 1452 1452 1453 1454 1453 1454 1455 1455 1456 1458 1459 1460 1462 1465 1468 1472 1478 1484
1455 1454 1453 1451 1450 1449 1448 1446 1445 1445 1444 1443 1442 1442 1442 1442 1442 1443 1444 1445 1446 1446 1448 1450 1449 1450 1450 1450 1452 1453 1454 1456 1458 1460 1463 1467 1472 1478
1448 1447 1446 1444 1443 1442 1441 1439 1439 1438 1437 1435 1435 1434 1434 1435 1435 1436 1437 1437 1438 1440 1443 1444 1445 1446 1446 1447 1448 1449 1450 1452 1455 1457 1460 1464 1469 1474
1442 1440 1439 1438 1436 1434 1433 1432 1431 1430 1429 1428 1427 1427 1427 1428 1429 1430 1431 1432 1432 1433 1435 1438 1440 1441 1443 1443 1444 1445 1447 1448 1451 1454 1457 1461 1465 1469
1435 1433 1432 1430 1429 1427 1426 1424 1423 1422 1422 1421 1420 1420 1421 1421 1422 1423 1424 1425 1426 1427 1429 1431 1434 1436 1437 1439 1440 1442 1443 1445 1448 1451 1455 1458 1463 1467
1429 1426 1424 1423 1421 1420 1419 1418 1416 1416 1415 1414 1413 1414 1414 1414 1415 1416 1418 1419 1420 1421 1423 1425 1428 1430 1433 1435 1436 1437 1439 1442 1445 1448 1452 1456 1460 1465
1422 1419 1417 1415 1414 1413 1412 1411 1410 1409 1408 1407 1407 1407 1407 1408 1408 1409 1411 1412 1413 1415 1417 1420 1422 1425 1428 1429 1432 1433 1435 1438 1442 1446 1450 1453 1458 1462
1414 1412 1410 1408 1407 1406 1405 1404 1402 1401 1401 1400 1400 1399 1400 1401 1402 1403 1404 1405 1407 1409 1411 1414 1416 1419 1421 1423 1426 1429 1431 1434 1438 1442 1447 1451 1455 1460
1407 1405 1403 1402 1401 1399 1398 1397 1395 1394 1393 1393 1392 1392 1393 1393 1394 1396 1397 1399 1401 1403 1405 1408 1410 1413 1415 1419 1422 1424 1428 1430 1434 1438 1443 1448 1453 1458
1401 1399 1397 1396 1394 1393 1391 1390 1388 1387 1386 1386 1385 1385 1386 1387 1387 1389 1390 1392 1394 1397 1399 1401 1404 1408 1412 1416 1418 1419 1423 1427 1431 1435 1440 1444 1449 1453
1394 1393 1391 1389 1387 1386 1384 1383 1381 1380 1379 1379 1378 1378 1379 1380 1381 1382 1384 1386 1388 1390 1393 1396 1399 1403 1406 1409 1412 1415 1419 1423 1428 1433 1438 1441 1444 1448
1388 1386 1384 1382 1381 1379 1377 1376 1374 1373 1373 1372 1372 1372 1373 1373 1374 1376 1377 1380 1382 1384 1387 1390 1393 1397 1400 1404 1408 1411 1415 1420 1424 1428 1434 1438 1443 1448